Simultaneous Nadir Overpasses (SNOs) Predictions

Prediction of SNOs between AQUA and NPP Satellite Orbit:

Table of predicted SNOs for the next 14.0 days since TLE Epoch: 1/6/2024
Index Date (AQUA) Time (AQUA) Lat,Lon (AQUA) SZA (AQUA ) Date (NPP) Time (NPP) Lat,Lon (NPP) SZA (NPP ) Distance(km) Time Diff (sec)
1 01/08/2024 09:23:50 -81.04, 136.26 68.88 01/08/2024 09:23:37 -81.05, 136.15 68.86 1.93 13
2 01/08/2024 10:13:11 81.09, -55.38 111.02 01/08/2024 10:14:18 81.10, -55.21 110.95 3.12 67
3 01/10/2024 22:18:28 -81.04, -57.37 69.20 01/10/2024 22:17:33 -81.05, -57.36 69.16 0.27 55
4 01/10/2024 23:07:50 81.06, 110.60 110.76 01/10/2024 23:08:16 81.07, 110.51 110.75 1.58 26
5 01/13/2024 12:02:28 81.07, -82.99 110.38 01/13/2024 12:02:13 81.06, -83.07 110.41 1.45 15
6 01/13/2024 12:51:50 -81.10, 85.25 69.71 01/13/2024 12:52:56 -81.10, 85.17 69.74 1.53 66
7 01/16/2024 00:57:06 81.05, 83.12 110.01 01/16/2024 00:56:11 81.04, 82.94 110.07 3.25 55
8 01/16/2024 01:46:28 -81.09,-108.64 70.09 01/16/2024 01:46:54 -81.08,-108.81 70.08 3.03 26
9 01/18/2024 14:41:05 -81.07, 57.53 70.51 01/18/2024 14:40:51 -81.07, 57.53 70.51 0.11 14



Historial Predications of SNOs between AQUA and NPP
